Starlink 3075

operational
NORAD ID: 49409 Int'l Des: 2021-104 Owner: SPXS Country: US Constellation: starlink
LEOCIRCULAR

About Starlink 3075

Description loading...

Live Position

Loading 3D Globe...

Upcoming Passes

Altitude History

Altitude vs Time

uPlot chart will show altitude changes over time

Two-Line Element Set

1 49409U 21104B 26034.34805325 .00000432 00000-0 45229-4 0 9994
2 49409 53.2193 23.2848 0001592 85.1144 275.0030 15.08840763233454
Epoch: Feb 3, 2026 • Age: 18 hours

Current Status

Altitude 545.1 km
Velocity 7.60 km/s
Sub-Earth Point 52.90°N, 67.99°W
Launch Date Nov 13, 2021
Age 4.2 years
Type internet

Technical Details

Classification Payload
Mass 290.00 kg
Dry Mass 270.00 kg
Total Mass 290.00 kg
Length 0.20 m
Diameter 2.80 m
Span 9.00 m
Shape Box + pan
Manufacturer SPXS
Bus Type Starlink
Phase Status In Orbit
Owner/State SPXS/US

Large Constellations

Loading constellations...